www.pogodaiklimat.ru

Погода и климат >> Архив погоды >> Доминиканская Республика >> Santo Domingo


АРХИВ ПОГОДЫ в Santo Domingo

Время (UTC), дата Ветер
(напр.,м/с)
 
Видим.   Явления Облачность Т
(С)
Тd
(С)
f
(%)
Тe
(С)
Тes
(С)
Комфортность P
(гПа)
Po
(гПа)
Тmin
(С)
Tmax
(С)
R
(мм)
R24
(мм)
S
(см)
03 11.10 штиль 0 12 км пыль {гроза, дождь} 9/6 420 м
[Cb cap As op Cs]
+24.6 +24.6 100 +34 +34 очень
душно
1015.1 1015.0 0.0
06 11.10 С 2 14 км пыль {гроза, дождь} 6/5 420 м
[Cb cap Ac trans Cs]
+24.0 +23.4 96 +32 +32 очень
душно
1013.1 1013.0 +24.0 +33.0
09 11.10 штиль 0 14 км пыль {туман} 8/6 450 м
[Sc Cs]
+23.8 +22.9 95 +32 +32 очень
душно
1012.1 1012.0
12 11.10 С 2 14 км пыль {туман} 8/6 300 м
[Cb cap Ac As Cs]
+24.2 +22.8 92 +32 +32 очень
душно
1013.8 1014.0 +24.0 +33.0
15 11.10 С 2 14 км пыль {туман} 9/6 480 м
[Cb cap Ac As Cs]
+29.0 +23.6 73 +40 +43 очень
душно
1014.9 1015.0
18 11.10 С 2 16 км {туман} 9/6 600 м
[Cb cap Ac cuf Cs]
+29.8 +24.2 72 +42 +45 опасность
перегрева
1012.1 1012.0 +24.0 +31.0
00 12.10 В 2 16 км {дождь} 8/5 540 м
[Sc Ac trans]
+27.0 +24.3 85 +38 +38 очень
душно
1012.2 1012.0 +24.0 +32.0 0.0
03 12.10 С 2 16 км 9/6 480 м
[Sc Ac As]
+25.4 +23.5 89 +34 +34 очень
душно
1013.2 1013.0
06 12.10 С 2 16 км 8/4 480 м
[Cu med, cong Ac As]
+24.6 +22.9 90 +33 +33 очень
душно
1012.0 1012.0 +24.0 +32.0
09 12.10 штиль 0 16 км 8/4 480 м
[Cu med, cong Ac As]
+24.4 +23.0 92 +32 +32 очень
душно
1011.6 1012.0
12 12.10 С 2 16 км 8/4 480 м
[Cu med, cong Ac As]
+25.0 +23.6 92 +34 +34 очень
душно
1014.8 1015.0 +24.5 +32.0
15 12.10 С 2 16 км 9/5 540 м
[Cb cap Ac trans Cs]
+29.2 +25.2 79 +42 +47 опасность
перегрева
1015.8 1016.0
18 12.10 ЮЗ 2 16 км 8/4 600 м
[Cb cap Ac trans Cs]
+30.2 +25.9 78 +45 +51 опасность
перегрева
1012.1 1012.0 +24.5 +31.0
21 12.10 штиль 0 16 км 9/5 540 м
[Cb cap Ac cuf Cs]
+27.4 +24.2 83 +38 +39 очень
душно
1012.8 1013.0
00 13.10 штиль 0 16 км 9/5 540 м
[Cb cap Ac cuf Cs]
+26.0 +23.5 86 +35 +35 очень
душно
1011.6 1012.0 +24.5 +31.5
03 13.10 ЮВ 2 16 км 9/6 480 м
[Cb cap Ac und Cs]
+26.4 +24.5 89 +37 +37 очень
душно
1014.1 1014.0
06 13.10 штиль 0 16 км 9/8 420 м
[Cb cap Ac As Cs]
+25.4 +24.0 92 +35 +35 очень
душно
1013.3 1013.0 +24.5 +31.5
09 13.10 штиль 0 16 км 9/5 420 м
[Cb cap Ac und Cs]
+24.6 +23.2 92 +33 +33 очень
душно
1012.1 1012.0
12 13.10 штиль 0 16 км 8/3 480 м
[Cb cap Cs]
+24.6 +23.2 92 +33 +34 очень
душно
1013.6 1014.0 +24.4 +31.5
15 13.10 штиль 0 16 км 10/9 420 м
[Cb cap Ac As Cs]
+26.6 +23.6 84 +36 +37 очень
душно
1016.0 1016.0
18 13.10 ЮЗ 2 16 км {гроза, дождь} 9/8 480 м
[Cb cap Ac As Cs]
+25.4 +23.2 88 +34 +36 очень
душно
1014.4 1014.0 +24.4 +28.0 4
21 13.10 ЮВ 2 16 км 9/5 540 м
[Cb cap Ac trans Cs]
+27.2 +24.0 83 +38 +39 очень
душно
1013.8 1014.0
00 14.10 штиль 0 16 км 9/6 480 м
[Cb cap Ac und Cs]
+26.0 +23.8 88 +36 +36 очень
душно
1014.1 1014.0 +24.4 +28.8
03 14.10 штиль 0 16 км 6/5 540 м
[Cu med, cong Ac trans Ci]
+25.6 +23.4 88 +35 +35 очень
душно
1015.1 1015.0
06 14.10 штиль 0 16 км 5/5 480 м
[Cu med, cong Ci]
+24.4 +23.6 95 +33 +33 очень
душно
1014.6 1015.0 +24.4 +28.8
09 14.10 штиль 0 16 км 3/3 480 м
[Cu med, cong Ac trans]
+23.5 +22.8 96 +31 +31 очень
душно
1013.1 1013.0
12 14.10 штиль 0 16 км 9/8 300 м
[Cb cap Ac As Cs]
+25.2 +22.7 86 +33 +34 очень
душно
1015.6 1016.0 +23.4 +28.8
18 14.10 ЮВ 2 16 км зарница {гроза, дождь} 9/8 420 м
[Cb cap Ac As Cs]
+26.8 +25.2 91 +39 +41 очень
душно
1015.8 1016.0 +23.4 +30.0 0.4
21 14.10 ЮЗ 2 8000 м слабый дождь {гроза} 9/8 360 м
[Cb cap As op Cs]
+25.2 +23.3 89 +34 +34 очень
душно
1014.8 1015.0 0.1
00 15.10 штиль 0 10 км слабый дождь {гроза} 10/8 360 м
[Cb cap As op]
+24.6 +23.2 92 +33 +33 очень
душно
1015.6 1016.0 +23.4 +30.0 0.8
03 15.10 СВ 2 8000 м дождь 10/9 360 м
[Cu Sc As op]
+23.8 +22.9 95 +32 +32 очень
душно
1017.0 1017.0 8
06 15.10 С 2 16 км {дождь} 6/4 420 м
[Cu med, cong Ci fib]
+23.6 +22.7 95 +31 +31 очень
душно
1015.8 1016.0 +23.4 +30.0 0.6
09 15.10 штиль 0 16 км 5/3 420 м
[Cu med, cong Ci fib]
+23.4 +22.5 95 +32 +32 очень
душно
1015.0 1015.0
12 15.10 С 2 16 км {дождь} 5/3 300 м
[Cu Sc Ac trans]
+24.2 +22.8 92 +32 +33 очень
душно
1016.1 1016.0 +23.5 +30.0
15 15.10 С 2 16 км 8/5 600 м
[Cb cap Ac trans Ci fib]
+30.0 +24.7 73 +43 +47 опасность
перегрева
1017.1 1017.0
18 15.10 В 2 16 км 8/5 600 м
[Cb cap As op]
+24.2 +17.5 66 +20 +24 очень
холодно
1014.5 1015.0 +23.5 +32.5
21 15.10 Ю 2 14 км гроза, ливневой дождь 9/8 420 м
[Cb cap As op]
+26.1 +13.1 45 1014.2 1014.3 6
00 16.10 штиль 0 10 км слабый дождь {гроза} 10/8 480 м
[Cb cap As op]
+24.2 +23.6 96 +33 +33 очень
душно
1015.3 1015.0 +23.5 +33.4 24
03 16.10 штиль 0 16 км {дождь} 6/5 480 м
[Cb cap Ac As]
+24.4 +23.3 94 +33 +33 очень
душно
1016.8 1017.0 0.2
06 16.10 штиль 0 16 км {дождь} 4/3 420 м
[Cb cap Ac As Ci fib]
+24.2 +23.1 94 +32 +32 очень
душно
1015.8 1016.0 +23.5 +33.4
09 16.10 штиль 0 16 км 4/4 420 м
[Cb cap Ci fib]
+23.8 +22.7 94 +31 +31 очень
душно
1015.0 1015.0
12 16.10 С 2 16 км 6/5 300 м
[Cb cap Ci fib]
+25.0 +23.6 92 +34 +35 очень
душно
1016.4 1016.0 +24.0 +33.4
15 16.10 С 2 16 км 8/5 600 м
[Cb cap Ci fib]
+30.2 +24.9 73 +43 +49 опасность
перегрева
1017.2 1017.0
18 16.10 В 3 16 км {дождь} 8/4 660 м
[Cb cap Ac cuf Cs]
+30.2 +23.2 66 +40 +45 очень
душно
1013.1 1013.0 +24.0 +32.0 0.2
21 16.10 В 2 16 км в посл. час дождь 8/6 600 м
[Cb cap Ac cuf Ci]
+30.1 +24.2 71 +42 +43 опасность
перегрева
1013.6 1014.0 0.0
00 17.10 С 2 16 км 4/4 570 м
[Cu med, cong Cs]
+25.4 +24.6 95 +36 +36 очень
душно
1014.4 1014.0 +24.0 +32.0
03 17.10 С 3 16 км 5/4 540 м
[Cu med, cong Ci fib]
+25.8 +23.6 88 +35 +35 очень
душно
1016.1 1016.0
06 17.10 С 2 16 км 4/4 480 м
[Cu med, cong]
+25.4 +23.5 89 +34 +34 очень
душно
1015.0 1015.0 +24.0 +32.0
09 17.10 С 2 16 км 4/3 480 м
[Cu med, cong Ci fib]
+24.8 +23.4 92 +33 +33 очень
душно
1014.6 1015.0
12 17.10 С 2 16 км 4/3 300 м
[Cu med, cong Ci fib]
+26.0 +23.3 85 +35 +36 очень
душно
1016.0 1016.0 +24.5 +32.0
15 17.10 СВ 2 16 км 8/5 600 м
[Cb cap Ci fib]
+30.0 +23.3 67 +40 +46 очень
душно
1016.5 1017.0
18 17.10 штиль 0 14 км гроза, ливневой дождь 10/9 420 м
[Cb cap As op]
+25.9 +24.8 94 +37 +37 очень
душно
1014.8 1015.0 +24.5 +31.5 10
21 17.10 С 2 16 км {гроза, дождь} 9/5 480 м
[Cu med, cong As op Cs]
+27.6 +25.6 89 +41 +41 опасность
перегрева
1013.7 1014.0 4

 

Местоположение метеостанции Santo Domingo (Доминиканская Республика): широта 18.43 долгота -69.88 высота над уровнем моря 14 м.

В архиве по умолчанию представлена погода в Santo Domingo за последнюю неделю. Архивные данные за месяц целиком и за предыдущие месяцы, начиная с января 2011 года, Вы можете получить, выбрав интересующий диапазон дат из раскрывающегося списка и нажав кнопку "Ввод!".


*Определитесь, кто Вы:
робот инопланетянин человек

Внимание! Время в таблицах - всемирное. Для получения местного времени необходимо прибавить поправку, которая в Santo Domingo равна -4 ч.

Смотрите также архив погоды в соседних городах и на ближайших метеорологических станциях:

Погода в Las Americas (Доминиканская Республика) (23 км)
Погода в Sabana De La Mar (Доминиканская Республика) (87 км)
Погода в La Romana Int Airport (Доминиканская Республика) (101 км)
Погода в Barahona (Доминиканская Республика) (131 км)
Погода в Santiago (Доминиканская Республика) (143 км)
Погода в Punta Cana (Доминиканская Республика) (161 км)
Погода в Puerto Plata (Доминиканская Республика) (163 км)
Погода в Punta de Maisi (Куба) (492 км)
Погода в Charlotte Amalie St. Thomas (Виргинские Острова) (519 км)
Погода в Santiago de Cuba (Куба) (650 км)

Пояснения к столбцам:

Ветер - указаны скорость ветра в м/с - средняя за 10 мин, порывы в срок и между сроками (в фигурных скобках) и направление, откуда дует ветер: С - северный, СВ - северо-восточный, В - восточный, ЮВ - юго-восточный, Ю - южный, ЮЗ - юго-западный, З - западный, СЗ - северо-западный.
Видимость - горизонтальная дальность видимости в метрах или километрах. При видимости от 1 до 10 км при отсутствии осадков обычно наблюдается дымка, при ухудшении видимости до 1 км и менее - туман. В сухую погоду видимость может ухудшаться дымом, пылью или мглою.
Явления - указаны атмосферные явления, наблюдавшиеся в срок или в последний час перед сроком; фигурными скобками обозначены явления, наблюдавшиеся между сроками (за 1-3 часа до срока); квадратными скобками обозначены град или гололедные отложения с указанием их диаметра в мм.
Облачность - указаны через наклонную черту общая и нижняя облачность в баллах и высота нижней границы облаков в метрах; квадратными скобками обозначены формы облаков: Ci - перистые, Cs - перисто-слоистые, Cc - перисто-кучевые, Ac - высококучевые, As - высокослоистые, Sc - слоисто-кучевые, Ns - слоисто-дождевые, Cu - кучевые, Cb - кучево-дождевые. Подробнее классификацию облаков см. в Атласе облаков (PDF).
T - Температура воздуха - температура, измеренная на высоте 2 м над землей.
Td - Температура точки росы - температура, при понижении до которой содержащийся в воздухе водяной пар достигнет насыщения.
f - Относительная влажность воздуха - влажноcть воздуха, измеренная на высоте 2 м над землей.
Te - Эффективная температура - температура, которую ощущает одетый по сезону человек в тени. Характеристика душности погоды. При расчете учитывается влияние влажности воздуха и скорости ветра на теплоощущения человека.
Tes - Эффективная температура на солнце - температура, которую ощущает человек, с поправкой на солнечный нагрев. Характеристика знойности погоды. Зависит от высоты солнца над горизонтом, облачности и скорости ветра. Ночью, в пасмурную погоду, а также при ветре 12 м/с и более поправка равна нулю.
P - Атмосферное давление - приведенное к уровню моря атмосферное давление.
Po - Атмосферное давление - измеренное на уровне метеостанции атмосферное давление.
Tmin - Минимальная температура - минимум температуры воздуха на высоте 2 м над землей.
Tmax - Максимальная температура - максимум температуры воздуха на высоте 2 м над землей.
R - Количество осадков - Количество выпавших осадков за период времени, мм. При наведении курсора мыши на число - период времени, за который выпало указанное количество осадков.
R24 - Количество осадков - Количество выпавших осадков за 24 часа, мм.
S - Снежный покров - Высота снежного покрова, см. При наведении курсора мыши на число - состояние снежного покрова и степень покрытия местности в баллах.